EKRAN 2 DEB, 12996

Orbit data source: Space-Track

EKRAN 2 DEB, 12996 is space debris in GEO originally from a launch on Tue, 20 Sep 1977 UTC launched from the Tyuratam Missile And Space Complex (TTMTR). Debris objects in space refer to the collection of defunct objects orbiting the Earth. Examples of debris include non-operational satellites, rocket bodies, and fragments generated from explosions, collisions, or faulty payload assembly.

Not visible in the next 10 days
Identifier
12996, 1977-092J
Orbit
GEO
Country
Flag of CISCIS
Related business
Manufacturer
Unknown
Mission
Spacecraft
Bus & Motor
Unknown
Mass
Unknown
Launch date (UTC)
1977-09-20 (48 years ago)
Launch vehicle
Unknown
Launch site
Tyuratam Missile And Space Complex (TTMTR)
Object type
Payload
Rocket body
Debris
Shape & HBR
Unknown shape, 1.1 m
Radar Cross Section
Medium (>0.1 m² and <1 m²)

Expand to show TLE details & history
Last TLE update: 1 day ago

TLE from 1 day ago
0 EKRAN 2 DEB
1 12996U 77092J   25306.34836764 -.00000353  00000-0  00000+0 0  9990
2 12996   4.8918 277.9102 0023693 292.7852  79.1432  1.00044707 82240
Epoch: 2025-11-02T08:21Z
TLE epoch observation values (Epoch: 2025-11-02T08:21:38.964Z)
Latitude
1.05015°
Longitude
122.74204°
Altitude
35,830.9 km
Speed
3.074 km/s
True Right ascension
19h 20m 04s
True Declination
1° 02' 57"
Sunlit
Object was in daylight at epoch
Visualization orbit readout
Latitude
Unknown
Longitude
Unknown
Altitude
Unknown
Speed
Unknown
Apparent Right ascension
Unknown
Apparent Declination
Unknown
Sunlit
N/A
Visualization observer readout
Local Sidereal Time
13:27:49
Azimuth
Unknown
Elevation
Unknown
Doppler factor
Unknown
Orbital elements
Apogee altitude
35,951.486 km
Perigee altitude
35,751.377 km
Semi-major axis
42,229.568 km
Eccentricity
0.00237
Inclination
4.8918°
RAAN
277.9102°
Arg. of periapsis
292.7852°
True anomaly
79.40999°
Mean anomaly
79.1432°
Eccentric anomaly
79.27658°
Mean motion
0.2501 °/min
Orbital period
1,439.41 mins
BSTAR
0
Loading maneuver chart data...
Computing Atmospheric mass density...
Loading historical data...
Loading historical data...
Loading historical data...
Loading historical data...
Loading historical data...
Loading historical data...
Loading historical data...

Documentation

Showing up to 5 results
|